SCP
0 0 0 0 0 0 0 0 0 0 0 0 0 0 0 0 0 1 1 1 2 2 2 2 2 3 2 2 3 3 2 2 2 1 1 1 1 1 1 1 1 1 1 1 1 1 0 1 1
0 0 0 0 0 0 0 0 0 0 0 0 0 0 0 0 0 1 1 1 2 2 2 2 3 3 2 2 3 3 3 2 2 1 1 1 1 1 1 1 1 1 1 1 1 1 1 1 1
0 1 1 0 0 0 0 0 0 0 0 0 0 0 0 0 1 1 1 2 2 2 2 3 3 3 3 3 3 3 3 2 2 1 1 1 1 1 1 1 1 1 1 1 1 1 1 1 1
1 1 1 0 0 0 0 0 0 0 0 0 0 0 0 1 1 2 2 2 2 2 3 3 3 3 3 3 3 3 3 2 2 2 2 2 1 1 1 1 1 1 1 1 1 1 1 1 1
1 1 1 0 0 0 0 0 0 0 0 0 0 0 1 2 2 3 3 3 3 3 3 3 3 3 3 3 3 3 3 3 2 2 2 2 2 2 2 1 1 1 1 1 1 0 0 1 1
1 1 1 0 0 0 0 0 0 0 0 0 0 0 1 2 3 4 4 4 5 5 4 3 3 3 3 3 3 3 3 3 3 2 2 2 2 2 2 2 1 1 1 1 1 0 1 1 1
1 1 0 0 0 0 0 0 0 0 0 0 0 0 1 2 4 5 5 5 6 6 5 4 3 3 3 4 3 3 3 3 2 2 2 2 3 2 2 2 1 1 1 1 1 1 1 1 1
1 1 0 0 0 0 0 0 0 0 0 0 0 0 1 2 4 6 6 6 6 6 5 4 3 3 3 3 3 2 2 2 2 2 2 2 2 2 2 2 2 2 1 1 1 1 1 1 1
0 0 0 0 0 0 0 0 0 0 1 1 0 0 1 2 4 6 7 6 6 5 4 3 3 3 3 3 2 2 2 2 2 2 2 1 2 2 2 2 2 2 2 1 1 1 1 1 0
0 0 0 0 0 0 0 0 0 0 1 1 0 1 1 2 4 6 6 5 4 4 3 3 3 3 3 3 3 2 2 2 2 2 2 1 1 1 2 2 2 2 2 1 1 1 1 1 0
0 0 0 0 0 0 0 0 0 0 0 0 0 1 1 2 3 5 5 4 4 4 4 3 3 3 3 4 4 3 3 2 2 2 2 2 2 2 2 2 2 2 2 2 1 1 1 1 1
0 0 0 0 0 0 0 0 0 0 0 0 0 1 1 2 3 4 4 4 4 4 4 3 3 3 3 4 4 3 3 3 2 2 2 2 2 2 2 3 3 3 2 2 1 1 1 1 1
0 0 0 0 0 0 0 0 0 0 0 0 1 1 1 2 3 3 4 4 4 4 4 3 3 3 3 4 4 3 3 3 2 2 2 2 2 2 2 2 3 3 2 2 1 1 1 1 1
0 0 0 0 0 0 0 0 0 0 0 0 1 1 1 2 2 3 3 4 4 4 4 4 4 3 3 3 4 3 3 3 2 2 1 1 1 1 1 2 3 3 3 2 1 1 1 1 1
0 0 0 0 0 0 0 0 0 0 0 1 1 1 1 2 2 2 3 3 3 3 3 4 4 4 4 3 4 3 3 2 2 2 1 1 1 1 1 2 2 3 3 2 2 1 1 1 1
0 0 0 0 0 0 0 0 0 0 0 1 1 1 1 1 2 2 3 3 3 3 3 4 5 5 4 4 3 3 2 2 2 2 2 1 1 1 1 1 2 2 2 2 2 1 1 1 1
0 0 0 0 0 0 0 0 0 0 1 1 2 2 2 1 2 2 3 3 3 3 3 3 4 4 4 4 3 2 2 2 2 2 2 1 1 1 1 1 1 1 2 2 2 1 1 1 1
0 0 0 0 0 0 0 0 0 0 0 1 1 2 2 2 2 3 3 3 3 3 2 3 3 3 3 3 2 2 2 2 2 2 1 1 1 1 1 1 1 1 2 2 2 1 1 1 1
0 0 0 0 0 0 0 0 0 0 0 0 1 1 1 2 2 3 3 3 3 3 2 2 2 2 2 2 1 1 1 1 1 1 1 1 1 1 1 1 1 1 1 2 2 1 1 1 1
0 0 0 0 0 0 0 0 0 0 0 0 0 1 1 2 2 2 2 3 3 3 3 2 2 2 2 1 1 1 1 1 1 1 1 0 0 1 1 1 1 1 1 1 2 1 1 1 0
0 0 0 0 0 0 0 0 0 0 0 0 0 1 1 2 1 1 1 2 3 3 3 2 2 2 2 1 1 1 0 0 0 1 1 1 0 1 1 1 1 1 1 1 1 2 1 1 0
0 0 0 0 0 0 0 0 0 0 0 0 0 1 1 1 1 1 1 1 2 2 2 2 2 2 2 2 1 0 0 0 0 0 1 1 1 1 1 1 1 1 1 1 1 2 2 1 1
0 0 0 0 0 0 0 0 0 0 0 0 0 0 0 0 1 0 0 1 1 2 2 2 1 2 2 1 1 0 0 0 0 0 0 1 1 1 0 1 1 1 0 0 1 1 2 1 1
0 0 0 0 0 0 0 0 0 0 0 0 0 0 0 0 0 0 0 1 1 1 2 1 2 2 2 1 1 0 0 0 0 0 0 0 1 1 0 0 1 1 0 0 0 1 1 1 1
0 0 0 0 0 0 0 0 0 0 0 0 0 0 0 0 0 0 0 0 1 1 2 2 2 2 2 1 1 1 0 0 0 0 0 0 0 0 0 0 0 0 0 0 0 0 1 1 1
0 0 0 0 0 0 0 0 0 0 0 0 0 0 0 0 0 0 0 0 1 1 2 2 2 2 2 1 1 1 0 0 0 0 0 0 0 0 0 0 0 0 0 0 0 0 0 0 0
0 0 0 0 0 0 0 0 0 0 0 0 0 0 0 0 0 0 0 0 1 1 2 2 1 1 1 1 1 1 1 0 0 0 0 0 0 0 0 0 0 0 0 0 0 0 0 0 0
0 0 0 0 0 0 0 0 0 0 0 0 0 0 0 0 0 0 0 0 0 1 1 1 1 1 1 1 0 0 0 0 0 0 0 0 0 0 0 0 0 0 0 0 0 0 0 0 0
0 0 0 0 0 0 0 0 0 0 0 0 0 0 0 0 0 0 0 0 0 0 0 1 0 0 0 0 0 0 0 0 0 0 0 0 0 0 0 0 0 0 0 0 0 0 0 0 0
0 0 0 0 0 0 0 0 0 0 0 0 0 0 0 0 0 0 0 0 0 0 0 0 0 0 0 0 0 0 0 0 0 0 0 0 0 0 0 0 0 0 0 0 0 0 0 0 0
Wind_Speed
1 1 2 3 5 7 12 9 5 5 5 3 3 4 4 4 2 2 5 6 9 12 13 14 13 12 12 12 12 11 11 12 12 12 12 13 12 12 12 12 12 12 13 13 13 13 14 14 14
1 1 3 4 7 10 10 9 10 7 2 3 4 4 4 3 1 3 4 6 9 11 11 12 12 12 12 12 12 11 11 12 11 11 12 12 12 12 12 12 12 12 12 13 13 13 13 13 13
1 2 3 5 9 12 9 6 7 6 4 4 4 3 2 0 2 2 3 8 10 11 10 12 12 12 12 12 12 11 11 11 11 11 11 12 12 12 12 12 12 12 12 12 13 13 13 12 13
3 3 4 7 14 12 9 3 3 5 5 4 4 4 2 2 1 2 6 9 11 11 10 12 11 11 11 11 11 11 11 11 11 11 11 11 12 12 12 12 12 11 11 12 12 12 12 12 12
3 4 7 11 15 10 7 4 4 5 4 4 5 4 3 3 3 4 8 10 10 10 9 11 11 11 11 11 11 11 11 12 12 12 12 11 12 12 12 12 11 11 11 11 11 11 11 11 12
5 5 9 14 16 11 8 7 6 6 5 3 5 5 3 4 3 5 8 8 9 9 9 10 10 10 10 10 11 10 10 11 11 11 11 11 11 12 12 11 11 11 11 11 11 11 11 11 11
6 7 12 14 13 12 8 6 7 7 6 4 3 4 4 3 3 5 7 7 8 8 8 9 10 10 10 10 10 10 10 10 10 11 10 10 10 11 11 10 10 10 11 11 11 11 11 11 11
4 6 11 13 13 11 6 6 5 7 5 1 2 4 3 3 4 6 7 6 6 6 7 7 8 8 9 9 9 9 9 10 10 10 10 9 10 10 10 9 9 10 10 10 10 10 10 10 10
5 8 13 13 11 8 5 6 4 2 3 3 2 2 3 5 7 7 6 6 5 5 5 6 6 6 7 7 8 9 9 9 9 9 9 8 7 8 8 9 9 9 10 10 10 10 10 9 9
8 11 14 8 7 6 5 5 4 4 5 5 3 1 1 6 7 8 8 7 6 6 5 4 5 5 6 5 6 5 6 7 6 6 7 5 5 5 6 9 9 9 9 9 9 10 9 5 5
7 11 9 6 5 4 5 4 3 5 6 6 5 4 5 6 7 7 7 7 7 6 5 4 5 5 5 4 4 3 3 4 5 6 6 5 5 4 5 5 6 7 7 6 7 6 4 4 4
8 9 8 6 4 4 5 5 5 6 5 3 2 4 7 7 7 6 7 6 6 5 5 4 4 4 5 4 4 4 3 3 4 4 5 4 3 4 4 3 4 4 4 4 4 3 4 4 5
11 8 6 6 4 4 4 6 6 7 5 3 1 2 6 6 6 4 4 4 4 5 4 4 4 4 4 4 3 4 4 4 4 4 4 4 4 4 4 3 3 4 4 4 4 4 4 4 4
6 7 6 5 6 6 6 6 6 6 3 2 1 2 4 5 4 4 3 3 3 4 4 4 4 4 4 4 4 3 3 3 4 4 4 4 3 3 4 4 4 4 3 4 4 5 4 4 3
6 7 8 7 7 5 5 8 8 5 4 3 3 2 3 3 3 4 3 3 3 3 3 3 4 4 4 4 4 3 3 3 3 3 4 4 4 4 4 3 4 4 4 5 4 5 4 3 4
6 9 9 6 6 5 8 10 4 3 5 5 4 3 3 3 3 2 2 2 2 3 3 3 2 3 4 4 4 3 3 3 3 3 3 4 4 5 4 4 3 4 4 4 4 4 4 4 3
6 8 9 6 5 4 7 7 2 2 4 4 3 3 3 2 2 1 1 1 1 2 3 4 3 3 3 3 3 3 3 3 3 3 3 4 4 4 4 4 4 4 4 4 4 4 4 4 4
7 8 9 8 4 5 7 6 1 1 2 3 2 2 2 2 1 1 1 1 1 1 2 3 3 3 3 3 3 3 3 3 2 2 3 4 4 4 4 4 5 5 4 4 4 5 4 4 4
8 9 10 7 4 5 7 6 3 1 1 2 2 1 1 1 0 1 1 1 2 2 2 3 3 3 2 2 2 3 3 3 2 2 3 3 4 4 4 4 5 5 5 5 6 5 6 4 4
8 9 8 4 4 6 6 5 4 2 1 2 2 1 1 1 1 1 2 2 1 1 1 2 2 3 2 2 2 2 2 2 2 2 2 3 4 4 4 5 4 5 5 6 7 6 4 3 4
7 8 7 5 3 5 6 6 5 3 1 1 1 1 0 1 1 1 1 1 1 1 1 1 2 2 2 2 2 2 2 2 2 2 2 2 3 3 3 4 4 5 5 6 7 7 7 5 4
7 5 5 5 5 4 7 5 4 3 1 1 2 1 1 1 1 0 1 1 1 0 0 0 1 1 1 2 3 4 3 3 3 2 2 2 3 3 3 4 5 5 5 5 6 7 6 7 5
5 4 5 6 6 4 5 5 2 2 2 2 1 1 1 1 0 1 1 2 1 1 1 1 1 1 1 1 2 3 3 3 2 3 3 3 3 3 3 3 4 4 4 5 6 7 7 6 6
2 3 3 4 4 6 5 6 2 1 2 2 1 2 2 2 2 2 2 2 2 3 2 2 2 1 0 1 1 2 3 3 4 4 4 3 2 3 3 3 4 4 4 5 5 5 7 6 6
1 1 2 3 4 4 3 4 1 3 2 1 2 2 3 3 3 3 3 3 3 4 3 2 2 1 1 1 0 1 2 3 4 4 4 3 3 3 4 3 4 4 4 5 5 5 5 6 7
2 3 2 2 3 1 3 3 2 4 4 3 3 3 3 4 4 4 3 3 3 3 3 3 2 1 1 1 1 1 1 2 2 3 3 3 3 3 4 4 4 4 5 5 5 5 5 5 6
2 2 3 3 2 2 2 1 1 4 5 6 6 6 5 4 4 4 4 4 4 3 3 3 2 2 2 1 1 1 1 1 2 2 2 2 2 2 4 4 4 5 5 5 5 5 5 5 5
3 2 2 3 3 3 2 1 1 4 5 6 6 7 6 5 5 4 4 4 4 4 4 3 3 2 2 2 1 1 1 1 2 2 2 2 3 3 3 4 4 4 5 5 6 5 6 6 5
4 1 2 2 3 3 2 1 4 1 2 4 5 6 6 6 5 5 5 4 4 4 4 4 3 3 3 2 2 2 2 2 2 2 2 2 3 3 3 4 4 4 5 5 5 6 6 6 6
5 3 1 1 1 2 2 1 5 3 3 5 6 6 6 6 5 5 5 5 5 5 4 4 4 3 3 3 3 2 2 2 2 2 3 3 3 3 3 4 4 4 5 5 6 6 6 7 7
Wind_Direction
326 285 243 219 216 225 233 220 214 195 193 200 189 214 223 211 219 74 71 143 145 148 149 150 147 145 143 143 142 141 139 136 133 133 133 131 127 125 122 118 115 111 107 104 101 101 102 101 99
287 231 212 215 228 225 225 218 212 210 165 160 186 213 218 215 21 64 121 146 150 148 149 151 144 145 144 142 143 142 141 138 137 134 134 133 130 127 125 121 118 112 107 105 102 101 103 102 100
191 250 220 210 227 232 223 197 217 201 187 196 190 210 240 196 104 110 122 151 151 148 150 143 142 142 142 142 142 143 140 139 137 134 132 132 130 128 126 123 117 112 108 107 106 105 103 104 104
207 192 215 228 228 231 241 190 165 181 183 205 205 181 166 49 40 96 139 155 151 148 148 142 142 141 139 138 142 143 141 138 135 132 129 128 129 127 122 119 116 114 112 111 109 108 106 105 106
215 213 214 227 234 230 230 222 197 202 190 188 206 199 153 94 71 123 149 154 151 148 146 145 143 142 142 140 138 139 140 138 134 132 132 130 128 125 122 120 118 116 115 116 113 111 111 108 108
196 213 223 230 231 227 222 218 217 224 213 198 213 215 142 92 110 132 148 153 148 146 146 145 139 138 140 140 137 134 135 138 136 135 133 131 128 124 123 121 121 119 117 115 115 115 113 109 107
218 216 233 236 236 229 216 211 226 225 218 204 220 213 154 117 117 137 143 145 142 144 145 146 149 145 137 133 132 132 130 132 134 132 129 125 123 124 122 120 120 120 119 117 116 114 111 109 106
235 228 233 234 235 234 212 203 228 234 229 186 218 225 180 146 136 135 133 132 134 139 140 143 150 151 150 144 132 128 126 126 125 124 120 118 119 121 122 123 117 117 118 118 117 114 110 106 104
222 227 231 228 230 230 201 204 207 237 211 178 203 313 15 126 144 140 136 131 134 136 137 143 147 148 150 149 140 134 125 124 128 125 124 137 144 139 135 120 113 114 116 118 118 115 110 108 104
213 230 234 237 242 232 204 217 216 198 210 216 216 246 118 149 156 157 157 155 156 155 150 146 149 148 148 147 148 152 148 144 147 143 147 157 147 137 132 116 112 113 113 116 115 116 121 132 127
217 235 238 237 247 242 219 226 234 223 228 230 226 196 166 167 168 171 170 168 166 163 156 151 149 150 150 145 145 147 144 143 145 148 151 150 145 141 141 140 137 136 137 131 128 137 135 133 127
229 239 242 240 235 233 233 229 233 236 261 315 260 178 163 169 175 181 177 173 167 165 161 148 147 152 152 148 150 152 147 145 144 147 154 155 149 151 149 152 153 154 147 139 140 137 131 129 130
228 235 238 240 228 231 233 234 244 253 274 315 332 176 171 173 174 174 175 169 166 166 160 152 151 151 148 149 151 153 152 151 145 146 153 159 158 157 153 153 155 156 149 148 143 138 134 136 132
230 232 235 240 235 232 231 243 242 259 262 250 213 205 190 183 176 162 163 170 169 168 162 152 148 145 144 148 151 149 151 149 150 150 151 155 155 153 158 158 157 153 151 148 149 143 142 137 132
237 236 237 232 226 221 229 240 236 250 240 226 223 223 210 193 184 183 180 183 181 176 163 153 149 144 148 148 149 144 146 153 152 146 154 155 156 159 158 157 159 151 149 151 147 143 141 131 132
229 228 231 223 228 227 225 238 231 240 227 225 225 224 223 201 190 191 186 178 178 170 159 146 143 148 151 148 147 144 149 154 153 147 152 157 160 164 161 152 157 155 156 157 153 152 145 142 143
212 231 237 232 216 213 220 242 259 260 214 215 220 225 232 211 201 185 195 182 175 171 160 147 144 150 149 145 144 136 137 147 150 151 153 158 163 169 166 159 155 161 162 163 157 160 156 153 146
228 234 233 235 212 207 217 235 247 239 199 202 218 234 238 215 200 137 156 147 142 146 154 149 148 142 143 140 139 133 133 140 144 150 156 161 166 171 167 162 164 165 166 167 166 159 157 155 146
243 238 242 245 227 217 221 236 241 239 195 206 227 259 261 258 160 92 81 102 105 102 129 152 149 146 148 149 153 156 160 155 151 155 157 163 168 173 174 168 171 175 180 177 170 157 157 153 152
239 244 245 254 234 223 221 238 240 240 233 224 226 252 252 299 320 60 61 74 91 112 109 151 160 165 170 168 164 164 159 156 155 154 160 169 171 177 186 182 179 180 183 183 176 168 165 160 180
242 241 242 242 244 218 215 228 226 247 246 275 276 265 272 272 231 50 45 66 73 95 121 175 182 176 172 161 153 137 132 134 154 165 169 178 181 183 190 192 186 184 187 192 186 183 181 173 184
246 241 238 221 225 220 212 234 210 215 236 296 296 278 302 312 253 72 40 48 60 30 27 72 188 164 163 163 171 176 184 185 188 184 182 180 185 188 193 196 194 191 190 194 194 193 194 184 183
254 257 236 223 228 238 219 233 225 172 246 282 288 300 324 333 13 49 32 35 44 47 44 34 58 126 155 179 180 192 199 199 182 179 183 187 185 191 195 198 199 197 194 195 199 194 199 200 198
254 226 214 212 221 233 219 217 243 122 272 299 335 7 8 9 39 47 37 42 42 44 43 44 54 52 97 171 182 202 201 195 191 190 187 190 189 193 199 201 202 203 201 198 201 203 203 206 205
339 231 210 200 208 227 181 208 272 33 13 347 340 358 20 28 35 43 36 31 30 34 29 36 43 35 33 48 208 225 215 207 205 201 200 198 197 201 202 207 208 207 207 205 201 204 207 208 207
261 244 262 253 236 222 184 218 89 44 32 25 15 9 22 28 32 29 22 21 23 26 23 31 22 11 17 21 332 286 249 225 221 216 211 211 211 211 207 209 214 212 208 205 202 205 207 208 207
276 249 281 282 284 250 211 114 124 24 25 22 17 14 11 10 16 18 19 18 13 11 14 18 6 1 3 356 344 314 279 246 231 226 224 221 223 219 211 210 211 214 211 208 202 204 208 207 209
340 306 247 237 247 237 221 227 335 0 359 3 8 6 1 2 8 11 11 10 7 2 4 10 2 357 358 359 346 329 313 274 248 235 233 229 224 220 216 215 214 215 213 211 208 207 209 210 212
9 360 314 254 278 264 232 100 29 12 3 357 357 357 356 358 3 3 4 3 4 5 5 5 4 1 359 358 346 337 329 302 262 244 239 238 234 225 222 222 219 219 218 215 213 211 207 210 213
25 18 327 244 271 267 259 50 40 28 26 10 2 359 357 357 359 3 4 3 3 3 2 1 358 354 348 345 340 337 328 310 275 254 248 243 240 236 230 226 223 223 224 220 219 218 214 214 215